Regional Weather Roundup
Issued by NWS

Current Version | Previous Version | Text Only | Print | Product List | Glossary On
Versions: 1 2 3 4 5 6 7 8 9 10 11 12 13 14 15 16 17 18 19 20 21 22 23 24 25 26 27 28 29 30 31 32 33 34 35 36 37 38 39 40 41 42 43 44 45 46 47 48 49 50
000
ASUS46 KLOX 261912
RWRCA

SOUTHERN CALIFORNIA WEATHER ROUNDUP
NATIONAL WEATHER SERVICE OXNARD CALIFORNIA
1200 PM PDT SUN APR 26 2015

NOTE: "FAIR" INDICATES FEW OR NO CLOUDS BELOW 12,000 FEET WITH NO
SIGNIFICANT WEATHER AND/OR OBSTRUCTIONS TO VISIBILITY.

  -  STATIONS PRECEEDED BY AN ASTERISK (*) ARE NOT NWS OR FAA
     STATIONS AND ARE NOT SUBJECT TO NWS AND FAA QUALITY CONTROL.

CAZ041-042-087-262000-
LA AND ORANGE COUNTY COASTAL AREAS


CITY           SKY/WX    TMP DP  RH WIND       PRES   REMARKS
L.A. DOWNTOWN  SUNNY     74  48  39 VRB6      29.97F
L.A. AIRPORT   MOSUNNY   67  47  48 W14       30.00F
LONG BEACH     MOSUNNY   67  53  61 S8        30.00F

CITY           SKY/WX    TMP DP  RH WIND       PRES   REMARKS
AVALON           N/A     63 N/A N/A MISG        N/A
FULLERTON      SUNNY     72  46  39 VRB5      29.98F
*GETTY CENTER    N/A    N/A N/A N/A S13G20      N/A
HAWTHORNE      SUNNY     71  46  40 W10       30.00F
*LOS ALAMITOS  PTSUNNY   69  54  58 SW12      29.99F
*REDONDO BEACH   N/A     68  52  56 W7        30.00F
SANTA ANA      PTSUNNY   69  51  52 SW8       30.00F
STA MONICA APT SUNNY     70  45  40 SW12      29.99F
TORRANCE       SUNNY     73  50  43 NW12      30.00F
*UCLA            N/A     68  41  37 SW12      29.96F

$$

CAZ547-548-048-262000-
LA COUNTY VALLEYS AND INLAND EMPIRE


CITY           SKY/WX    TMP DP  RH WIND       PRES   REMARKS
BURBANK        SUNNY     74  38  27 W9G17     29.97F
VAN NUYS       SUNNY     75  36  24 N18G25    29.98F

CITY           SKY/WX    TMP DP  RH WIND       PRES   REMARKS
CORONA AIRPORT CLEAR     69  48  46 NW7       29.99F
*CHATSWORTH      N/A     73  36  25 NW6       29.99F
CHINO          MOSUNNY   71  49  45 W13       30.00F
MARCH AFB      SUNNY     66  47  50 W6        29.98F
*NORTHRIDGE      N/A     73  32  21 W3G9        N/A
ONTARIO        PTSUNNY   66  48  52 W7        29.99F
*PASADENA        N/A     68  52  56 E5          N/A
POMONA         SUNNY     64  46  52 W8        30.02F
RIVERSIDE      SUNNY     66  48  52 W8        29.99F
SAN BERNARDINO MOSUNNY   64  48  55 SW14      30.00S
*WHITEMAN AP   SUNNY     72  37  28 W20       30.01F
*WHITTIER HILL   N/A     72  49  44 SW7         N/A
*WOODLAND HILL   N/A     73  32  21 N8          N/A

$$

CAZ054-055-262000-
LA AND SAN BERNARDINO COUNTY MOUNTAINS


CITY           SKY/WX    TMP DP  RH WIND       PRES   REMARKS
*BIG BEAR AIRP CLEAR     45  23  42 S5        30.07S
MT WILSON NWS    N/A     55  39  54 MISG        N/A
SANDBERG       SUNNY     53  40  61 N20G30    30.10S

$$

CAZ028-029-059-060-099-262000-
ANTELOPE VALLEY AND SURROUNDING AREAS


CITY           SKY/WX    TMP DP  RH WIND       PRES   REMARKS
LANCASTER      SUNNY     67  35  30 W20G31    30.02F
PALMDALE       SUNNY     67  35  30 W14G20    30.03F

CITY           SKY/WX    TMP DP  RH WIND       PRES   REMARKS
29 PALMS       MOSUNNY   70  26  19 NW20G36   30.01F
BARSTOW/DAGGET SUNNY     70  25  18 W8        29.98F
BISHOP         SUNNY     65  22  19 N25G37    30.03F
CHINA LAKE     SUNNY     69  23  17 NE6G20    29.98F
EDWARDS AFB    MOSUNNY   68  24  19 N10       29.98F
MOJAVE         FAIR      64  34  32 S8        30.02F
NEEDLES          N/A     77  24  14 NE23G30   29.87F
VICTORVILLE    SUNNY     64  27  24 NW10      30.02F

$$

CAZ039-040-262000-
VENTURA AND SANTA BARBARA COUNTY COAST


CITY           SKY/WX    TMP DP  RH WIND       PRES   REMARKS
CAMARILLO      SUNNY     70  46  42 SW9       30.01F
NWS OXNARD       N/A     68  48  49 CALM      30.00F
OXNARD AIRPORT SUNNY     64  48  56 W16       30.02F
*POINT MUGU    MOSUNNY   66  49  54 W16       30.02F
SBA APT/GOLETA SUNNY     71  44  37 W17G23    30.01F
*SANTA BARBARA   N/A     76  39  27 E5        30.06F
*VENTURA         N/A     68  47  45 SW3       30.05S

$$

CAZ044-045-262000-
VENTURA COUNTY VALLEYS


CITY           SKY/WX    TMP DP  RH WIND       PRES   REMARKS
*SIMI VALLEY     N/A     73  40  31 NE7       29.96F
*OJAI            N/A     75  47  35 W1        29.93F
*FILLMORE        N/A     75  46  36 CALM      29.88F

$$

CAZ053-262000-
VENTURA COUNTY MOUNTAINS


CITY           SKY/WX    TMP DP  RH WIND       PRES   REMARKS
*LOCKWOOD VLY    N/A     52  23  32 E12         N/A
*ROSE VALLEY     N/A     64  37  36 MISG        N/A

$$

CAZ034-035-036-262000-
CENTRAL COAST AND SANTA YNEZ VALLEY


CITY           SKY/WX    TMP DP  RH WIND       PRES   REMARKS
SAN LUIS OBISP SUNNY     69  37  30 NW10      30.07F
SANTA MARIA    SUNNY     66  40  38 NW20      30.07F

CITY           SKY/WX    TMP DP  RH WIND       PRES   REMARKS
*CAL POLY SLO    N/A     66  41  39 N7G13       N/A
*LOMPOC        SUNNY     66  43  42 W14       30.09F
*PISMO BEACH     N/A     58  50  76 SW14      30.09F
*SANTA YNEZ    FAIR      70  37  30 W10       30.04F

$$

CAZ037-038-051-262000-
SAN LUIS OBISPO COUNTY INTERIOR AND CUYAMA VALLEY


CITY           SKY/WX    TMP DP  RH WIND       PRES   REMARKS
*CUYAMA          N/A     60  38  45 SE5       30.07S
PASO ROBLES    SUNNY     66  33  29 CALM      30.09F

$$

CAZ032-033-061-262000-
SOUTHERN DESERTS


CITY           SKY/WX    TMP DP  RH WIND       PRES   REMARKS
BLYTHE         SUNNY     78  28  16 NW16G28   29.87F
IMPERIAL       SUNNY     80  32  17 N14       29.88F
PALM SPRINGS   SUNNY     79  35  20 N7        29.92F
THERMAL        SUNNY     80  32  17 VRB7G17   29.87F

$$

ELSEWHERE ACROSS THE WESTERN UNITED STATES AND MEXICO


CITY           SKY/WX    TMP DP  RH WIND       PRES   REMARKS
DENVER, CO     LGT RAIN  43  43 100 E16       29.87S FOG
GRAND CANYON,  PTSUNNY   46  32  58 N12G24    29.87S
HONOLULU, HI   PTSUNNY   75  70  83 SW9       30.01R
KAHULUI, MAUI  MOSUNNY   81  70  69 SW5       30.01R
LAKE TAHOE, CA SUNNY     47  29  49 VRB5      30.17R
LAS VEGAS, NV  MOSUNNY   69  25  19 W26G33    29.89F
MAMMOTH LAKES, FAIR      52  18  25 W8        30.14S
MEXICO CITY, M MOSUNNY   81  39  22 S8        30.20F
PHOENIX, AZ    PTSUNNY   67  45  45 W8        29.82F
PORTLAND, OR   CLOUDY    54  41  61 NE6       30.25S
RENO, NV       MOSUNNY   54  26  34 SE6       30.19R
SALT LAKE CITY PTSUNNY   47  33  58 NW17      30.00R
SAN DIEGO, CA  PTSUNNY   66  49  54 W10       30.02F
SAN FRANCISCO, MOSUNNY   64  42  44 W10       30.16S
SAN JOSE, CA   MOSUNNY   65  39  38 NW10      30.15F
SEATTLE, WA    CLOUDY    54  37  52 S7        30.23R
TIJUANA, MEX   PTSUNNY   66  48  52 CALM      30.02F

$$

STATION/POSITION TIME  TEMP    WIND        PRES    VSBY  WAVE
                       AIR SEA DIR/SP/G                  HT/PER
                 (UTC) (F)     (DEG/KT/KT) (MB)    (MI)  (FT/S)
POINT ARGUELLO B NOT AVBL
WEST SANTA BARBA 1900   54 53  320/ 21/ 25 1018.2R         9/ 8
POINT CONCEPTION NOT AVBL
EAST SANTA BARBA NOT AVBL
SANTA MONICA BAY 1900   59 58  310/ 12/ 14 1016.6F         6/ 7


USA.gov is the U.S. government's official web portal to all federal, state and local government web resources and services.